Location: Basses Si�yes
(44.0835°N, 6.2037°E)
Time: 08:41:22
(UTC+00:00)

ARGOS Delta rocket - Pass Details

Date: 27 February 2020
Orbit: 636 x 837 km, 96.5° (Epoch: 31 March)

Event Time Altitude Azimuth Distance (km) Brightness Sun altitude
Exits shadow 19:13:10 55° 113° (ESE) 776 3.6 -21.0°
Maximum altitude 19:13:45 61° 75° (ENE) 732 3.6 -21.1°
Drops below altitude 10° 19:18:12 10° 356° (N) 2,077 6.4 -21.9°
Sets 19:20:29 0° 353° (N) 3,015 7.3 -22.3°
